Location: Unspecified
(0.0000°N, 0.0000°E)
Time: 03:36:07
(UTC+00:00)

QB50P2 - Pass Details

Date: 24 March 2026
Orbit: 517 x 528 km, 98.1° (Epoch: 20 April)

Event Time Altitude Azimuth Distance (km) Brightness Sun altitude
Rises 05:39:05 0° 339° (NNW) 2,624 ? -6.8°
Reaches altitude 10° 05:42:08 10° 311° (NW) 1,744 ? -6.1°
Maximum altitude 05:43:56 13° 282° (WNW) 1,556 ? -5.6°
Drops below altitude 10° 05:45:46 10° 253° (WSW) 1,751 ? -5.1°
Sets 05:48:50 0° 225° (SW) 2,646 ? -4.4°
